Theta_e
309 309 310 312 312 313 323 328 332 327 326 329 330 333 334 329 332 329 331 333 334 335 334 334 332 332 333 333 332 330 331 332 333 334 333 333 333 334 333 334 337 335 335 336
309 309 310 312 313 312 321 330 329 327 327 333 332 332 332 330 329 331 331 332 332 333 335 335 334 333 334 333 332 333 334 332 332 334 334 333 333 332 332 333 334 335 336 336
308 309 310 313 313 313 319 327 329 328 328 329 332 332 331 329 327 328 328 331 330 333 334 335 337 334 335 333 334 331 332 333 334 335 336 337 336 334 333 333 334 334 334 335
308 309 310 312 313 313 320 326 328 328 331 330 329 330 330 329 329 328 328 330 330 332 334 335 335 335 336 334 331 332 333 335 336 335 335 336 336 336 336 336 336 337 336 335
307 308 310 312 313 319 322 325 327 325 327 327 328 323 329 327 328 327 328 328 329 329 331 334 335 337 335 336 336 335 335 338 336 337 337 337 337 335 336 335 335 336 336 336
307 308 309 312 313 317 320 320 321 324 320 325 327 328 328 327 326 325 325 327 327 327 329 329 329 330 331 332 334 335 336 336 337 338 336 336 337 335 335 335 336 335 336 336
306 307 309 310 313 315 320 319 321 322 322 321 323 322 322 322 322 324 322 322 323 326 324 323 322 322 324 326 327 328 331 334 334 335 334 336 333 331 331 332 332 333 334 334
305 306 309 310 311 313 319 318 321 323 325 322 321 320 321 321 321 319 320 320 322 322 320 321 322 323 324 324 324 325 325 327 329 330 329 329 327 327 328 328 328 333 334 334
305 305 308 310 310 310 318 318 319 321 324 323 321 321 321 324 324 325 322 322 322 322 322 324 325 326 325 325 326 325 325 326 326 327 327 327 327 332 330 331 331 335 335 336
305 305 306 309 310 310 313 317 314 321 322 320 321 323 324 321 322 324 324 323 323 322 326 325 325 325 324 324 325 326 329 327 326 327 328 327 327 330 329 330 333 331 331 333
304 305 305 308 310 310 312 318 311 318 320 320 318 318 321 321 321 324 325 323 324 324 325 326 326 326 327 327 326 327 327 329 329 329 329 328 330 329 330 331 328 329 329 330
304 305 305 307 310 310 313 317 316 312 320 322 318 318 318 319 320 322 320 325 325 326 328 327 327 327 326 327 328 327 327 327 329 331 331 330 329 329 328 326 325 325 327 327
304 305 305 306 310 310 309 315 317 318 319 319 318 319 317 318 318 318 323 321 322 323 324 324 324 326 325 325 325 326 326 325 327 327 326 326 325 326 325 325 324 323 323 323
304 305 305 306 310 310 309 315 316 317 318 321 320 317 317 318 317 318 319 320 320 320 321 322 324 324 323 324 324 325 324 323 325 325 324 323 323 323 323 322 321 322 322 322
306 305 305 307 310 310 311 316 316 314 319 321 320 318 317 318 318 318 319 319 320 321 322 323 324 322 323 322 323 323 322 323 324 324 322 322 322 321 321 321 321 321 321 321
307 305 305 309 310 310 314 318 317 313 316 319 321 320 318 318 320 320 320 321 321 321 321 321 320 320 321 322 323 321 321 321 321 321 320 320 320 320 320 320 320 320 321 322
306 307 309 310 310 309 315 316 315 313 315 318 320 319 317 318 319 320 320 320 320 320 319 320 320 319 320 322 323 320 319 320 321 320 320 319 319 319 319 319 320 320 320 320
309 311 311 309 311 313 316 314 313 313 316 317 322 321 319 318 321 321 320 318 321 319 319 319 319 319 319 320 320 320 320 320 319 319 318 319 319 319 319 320 321 321 321 321
311 311 310 314 315 317 317 314 313 313 317 319 320 321 322 317 319 318 319 320 321 321 320 319 318 320 321 321 320 320 321 320 319 317 317 317 318 319 321 321 320 320 322 322
310 311 316 317 314 314 314 313 316 316 317 317 320 319 321 318 319 319 320 320 320 321 321 318 320 320 320 320 319 320 319 318 317 317 317 318 318 319 319 319 320 321 321 321
314 316 316 314 313 313 316 317 317 317 318 318 319 319 321 318 320 320 320 320 319 319 319 319 319 321 319 316 316 317 317 317 316 316 318 318 317 318 318 317 317 318 319 320
312 312 312 313 315 316 316 319 318 319 321 319 320 320 319 320 320 320 320 321 319 319 318 318 320 321 318 317 316 316 316 315 315 316 317 316 317 316 317 316 317 318 318 318
311 313 315 315 315 316 317 319 320 321 320 320 320 320 320 321 320 320 321 321 320 318 318 319 319 319 318 317 317 317 315 314 316 317 317 315 315 314 315 315 316 319 320 320
313 315 315 316 317 317 319 320 321 320 320 320 320 322 322 320 321 320 321 320 319 319 320 320 318 320 319 319 318 317 315 315 317 317 317 316 313 315 317 319 321 323 322 321
314 315 318 316 315 317 319 319 319 319 319 320 321 321 322 321 321 320 320 320 320 320 321 318 318 320 320 319 318 316 315 317 317 317 314 314 314 317 317 318 321 321 322 323
314 315 316 316 318 319 319 319 319 319 319 320 320 321 321 322 321 320 320 319 320 318 318 317 316 320 319 318 316 315 317 317 317 317 314 315 317 316 317 316 318 319 318 319
315 315 314 314 316 317 318 318 319 320 319 321 321 321 322 320 321 320 319 319 319 317 316 315 318 319 319 317 315 316 316 317 317 316 315 314 316 317 317 317 317 318 317 317
Wind_Speed
23 25 27 27 24 12 3 7 4 5 11 12 16 12 12 5 6 6 7 7 9 9 10 8 14 11 3 3 8 11 14 9 11 14 11 8 10 11 12 10 12 11 8 9
22 24 25 26 24 15 3 6 3 6 11 7 9 7 5 6 6 6 3 7 4 1 8 6 9 8 10 3 9 3 5 9 12 12 10 14 11 14 12 15 11 12 10 4
21 23 24 24 22 14 3 6 5 7 12 11 12 7 11 10 4 3 7 7 5 8 10 8 4 9 6 2 8 8 7 13 17 14 12 7 5 11 12 11 11 11 13 15
20 22 23 23 20 11 3 5 2 6 4 8 8 4 4 11 6 5 5 6 9 6 12 12 10 12 4 8 7 8 8 16 17 19 20 18 12 15 13 14 13 15 15 17
19 20 21 22 20 11 5 8 6 2 3 1 7 5 5 7 5 4 6 9 2 6 10 11 5 18 5 10 8 10 12 15 15 20 20 17 22 18 19 19 19 20 19 19
17 18 19 20 21 13 7 8 4 6 6 6 8 1 3 5 2 4 4 7 4 10 9 9 10 10 14 14 7 12 13 12 13 19 16 19 24 19 22 18 21 19 20 17
16 15 16 17 18 17 13 10 6 8 3 6 4 2 2 4 2 8 2 4 6 7 10 11 15 18 19 18 16 16 14 14 11 15 18 22 16 16 14 10 14 17 15 12
15 13 12 13 13 14 12 13 5 6 3 5 5 4 2 3 3 7 6 3 4 9 8 8 11 10 14 17 17 17 16 14 13 14 16 20 18 9 8 12 13 7 8 3
14 13 11 11 12 11 9 11 9 5 10 5 4 3 2 4 4 5 3 1 5 6 8 8 8 8 5 4 5 5 15 15 12 13 17 19 14 10 9 6 11 13 7 7
14 12 9 8 9 10 6 8 11 3 7 4 3 3 6 3 4 4 3 1 3 4 6 8 10 12 10 10 12 8 8 10 15 14 15 19 14 7 2 9 2 7 7 7
13 11 9 6 7 8 5 5 10 5 4 4 1 3 2 2 3 5 7 5 6 5 6 5 6 4 7 4 9 12 12 10 10 13 17 21 10 4 7 7 5 7 7 9
12 10 8 5 4 6 7 4 10 5 2 3 2 2 2 2 1 5 1 5 3 8 4 1 4 5 6 7 9 5 8 9 9 9 10 6 4 4 3 6 10 13 11 11
11 9 7 4 3 4 6 4 11 6 3 3 5 6 1 1 4 2 6 2 2 1 3 8 4 4 6 9 8 12 7 10 11 13 16 16 13 2 8 17 19 14 18 21
12 9 6 4 2 3 5 4 7 5 4 5 7 3 2 4 4 4 3 1 1 1 3 8 5 6 3 8 10 10 13 14 10 15 18 23 22 21 19 21 22 23 25 27
10 7 5 3 2 2 3 2 2 7 3 7 6 2 2 2 5 5 4 4 4 5 8 6 7 9 7 10 12 11 14 11 10 6 12 16 19 22 25 27 29 30 30 30
9 6 3 2 2 2 3 3 1 5 5 4 3 4 5 5 6 6 5 5 6 8 9 10 9 9 8 6 10 15 11 14 14 15 18 21 24 26 23 28 27 28 26 25
7 2 1 1 2 2 4 3 1 5 5 3 4 7 7 7 6 7 7 5 8 8 12 12 13 15 6 10 13 17 20 12 10 13 18 22 23 24 24 28 30 31 31 32
4 2 1 1 0 5 4 0 2 5 2 3 4 4 9 8 10 8 4 8 5 5 10 9 9 14 6 4 14 9 7 10 15 18 18 23 27 27 28 27 30 31 31 30
4 2 2 5 3 2 1 4 5 2 2 3 5 5 4 8 4 3 6 3 5 3 8 7 3 7 6 8 12 11 6 10 18 24 24 26 25 27 30 30 30 31 31 29
1 4 1 3 2 3 2 2 3 2 4 4 6 1 3 4 4 1 4 0 4 5 2 3 6 9 5 6 9 12 12 13 21 23 26 28 29 31 33 32 31 31 32 31
2 2 1 2 0 1 3 3 4 4 4 7 6 4 2 4 6 1 2 2 2 3 4 3 4 2 0 9 10 10 14 18 20 22 22 25 30 33 32 33 34 35 35 37
1 1 1 2 2 5 3 3 4 5 3 8 9 7 4 2 2 4 2 3 2 5 3 3 3 2 2 10 12 17 18 20 20 20 22 29 32 31 33 33 34 35 37 40
2 2 3 4 4 1 5 6 4 4 7 8 8 6 3 4 4 5 3 4 4 7 3 3 4 5 3 8 14 17 18 19 20 22 23 31 32 33 33 39 34 33 33 34
3 4 2 4 5 5 5 5 3 5 5 7 5 4 4 3 3 4 4 3 3 3 2 5 3 7 8 10 15 17 19 18 20 20 24 26 28 32 33 24 24 23 23 22
4 4 4 7 12 7 5 1 4 5 4 4 2 3 6 4 3 3 3 4 3 4 6 7 7 4 8 11 15 18 16 16 16 17 24 26 26 35 32 27 27 23 24 18
5 6 7 11 7 9 10 10 9 5 8 8 6 3 3 5 3 5 6 3 5 6 3 6 8 6 11 13 15 14 13 14 16 16 20 22 23 23 27 29 30 25 24 21
5 8 12 13 13 10 8 4 5 6 10 3 4 4 4 3 4 4 4 5 9 9 13 17 13 10 13 14 15 12 11 12 14 16 18 18 22 23 20 27 34 24 25 21
Wind_Direction
351 352 351 352 353 2 168 277 240 160 167 202 221 230 234 20 254 219 255 288 300 289 270 257 242 235 156 124 268 220 236 270 242 224 233 241 305 283 230 230 221 238 288 293
352 354 354 354 354 358 276 259 72 178 185 232 206 213 244 254 248 235 248 243 251 191 273 261 267 255 79 97 247 318 274 230 254 240 226 200 233 246 249 269 275 266 282 244
352 355 357 356 356 353 310 277 207 165 214 265 283 185 228 201 244 259 282 303 259 251 245 223 279 260 120 262 286 16 297 266 273 280 264 7 217 238 254 269 268 260 236 241
352 356 359 1 359 1 356 240 4 346 197 211 252 305 343 231 179 249 255 228 254 274 260 242 238 246 168 199 169 245 247 262 275 280 288 293 289 274 264 264 270 268 282 293
353 357 2 6 10 33 25 325 330 246 347 261 253 150 206 267 117 271 203 259 51 304 266 297 312 329 225 271 197 243 247 260 272 276 281 283 280 262 267 271 272 273 274 277
353 356 3 10 17 41 24 356 317 284 110 218 235 110 94 218 342 177 326 327 299 258 26 351 320 308 305 290 301 282 286 278 271 264 263 271 263 258 258 268 272 267 267 277
354 355 360 9 20 37 38 3 331 277 183 264 2 63 260 230 278 306 152 303 276 20 321 303 274 261 261 261 260 258 257 265 272 273 283 258 269 290 316 308 300 307 303 302
352 352 356 4 11 24 52 5 14 318 323 23 165 199 224 207 189 242 274 271 316 312 296 273 247 245 247 252 249 242 249 258 257 259 255 264 266 256 264 266 263 343 311 297
349 350 349 358 7 15 55 357 12 317 305 82 21 247 312 279 201 163 212 293 303 286 264 236 252 250 285 227 197 248 242 240 253 251 263 267 277 50 21 307 248 23 352 319
344 346 344 348 4 13 31 354 5 334 289 85 310 325 360 315 276 305 124 330 222 252 247 247 252 254 251 255 261 240 224 241 250 238 250 263 289 75 73 252 34 3 353 327
342 341 341 340 358 12 56 346 6 35 300 70 70 15 308 231 246 299 76 228 196 222 258 264 273 261 287 309 281 289 282 262 238 247 261 263 25 305 272 43 1 338 324 319
338 337 337 335 349 9 53 360 340 358 253 23 238 221 243 195 356 330 167 357 354 7 293 315 307 287 262 271 273 294 250 271 306 323 330 26 4 49 31 325 319 309 293 297
331 332 326 322 322 355 7 9 347 355 268 174 182 157 66 195 225 225 296 142 18 186 311 330 304 288 306 281 280 300 260 265 271 279 287 297 301 324 294 297 296 301 291 295
325 323 320 306 289 340 357 35 332 357 292 275 133 185 295 248 212 197 207 18 136 303 271 274 279 285 295 284 306 304 301 316 294 280 280 290 293 302 321 308 298 292 287 283
321 315 306 273 250 332 359 332 338 20 346 331 85 152 158 133 169 178 200 210 241 262 249 231 255 271 293 289 284 272 265 283 285 314 342 311 304 304 305 302 295 290 289 284
319 309 286 241 237 326 77 234 252 358 7 277 216 101 163 169 170 189 210 230 254 260 282 285 283 269 261 280 283 292 313 292 316 310 308 297 296 294 292 291 294 296 298 296
310 297 261 242 266 227 258 360 314 353 357 274 231 167 172 185 205 219 227 227 256 264 283 265 269 277 245 270 272 295 291 302 302 295 294 289 295 301 297 296 292 289 286 280
302 290 263 277 204 104 85 310 236 343 303 245 268 111 160 190 219 208 198 261 205 266 279 284 267 272 260 278 275 324 324 325 301 301 303 298 295 300 298 293 298 291 280 283
304 292 127 106 98 258 303 280 289 238 256 297 266 196 107 170 237 276 229 218 250 152 260 246 268 246 202 242 321 323 299 294 301 303 302 296 302 300 299 296 292 294 287 284
112 132 232 191 239 204 276 307 178 228 209 231 269 337 128 231 153 249 341 303 298 253 213 203 218 266 20 288 314 316 307 302 302 313 316 314 309 303 301 294 294 291 283 280
12 285 8 209 175 213 241 244 233 178 216 204 226 265 356 144 293 315 226 209 233 265 220 268 281 131 111 356 335 319 306 305 315 317 319 310 313 307 302 297 294 293 284 282
323 279 283 271 256 234 238 242 174 207 260 170 206 170 227 104 248 261 261 274 205 253 108 269 268 186 304 323 332 324 319 318 312 311 315 320 310 312 309 303 297 291 285 282
300 299 237 219 213 305 226 192 207 210 187 167 191 178 197 196 232 247 238 236 235 303 243 239 242 183 301 337 325 321 322 316 315 315 313 319 331 327 315 306 299 297 294 289
251 232 273 223 200 238 205 241 54 99 139 178 188 194 229 205 236 226 241 241 283 250 259 247 323 52 333 337 326 317 323 320 318 326 333 331 335 342 342 340 337 325 309 308
250 231 238 222 244 268 249 226 207 187 230 231 321 230 201 213 226 234 265 220 250 200 220 274 351 328 317 327 323 321 318 314 319 325 340 352 341 339 345 355 352 346 353 344
239 235 250 244 261 231 206 209 227 193 253 256 216 241 227 217 245 212 223 232 213 250 321 279 312 346 321 321 320 316 309 314 317 327 335 338 332 350 351 0 357 357 354 345
229 237 235 264 294 300 283 266 251 217 257 252 266 242 220 226 234 233 242 271 307 354 335 328 351 342 320 314 311 305 304 312 318 316 324 334 348 347 351 359 359 356 355 350